www.pogodaiklimat.ru

Погода и климат >> Архив погоды >> Босния и Герцеговина >> Яйце


ПОГОДА в Яйце

  • Прогноз погоды в Яйце
  • Монитор погоды в Яйце

АРХИВ ПОГОДЫ в Яйце

Время (UTC), дата Ветер
(напр.,м/с)
 
Видим.   Явления Облачность Т
(С)
Тd
(С)
f
(%)
Тe
(С)
Тes
(С)
Комфортность P
(гПа)
Po
(гПа)
Тmin
(С)
Tmax
(С)
R
(мм)
R24
(мм)
S
(см)
06 14.09 СВ 1 2000 м в посл. час туман 10/10 90 м
[St]
+12.6 +11.5 93 +13 +13 1030.9 979.9 +11.3 +24.8
06 15.09 Ю 2 2000 м дымка {туман} 9/9 90 м
[St]
+12.0 +11.1 94 +11 +11 1028.6 977.6 +11.8 +24.8
06 16.09 Ю 1 2000 м дымка {туман} 10/10 90 м
[St]
+13.0 +11.6 91 +13 +13 1022.2 971.7 +12.0 +27.7
07 16.09 В 1 4000 м дымка 8/8 180 м
[St Ci fib]
+13.5 +11.7 89 +14 +14 1022.0 971.6
08 16.09 В 3 4000 м дымка 5/4 180 м
[St Ci fib]
+14.9 +12.7 87 +14 +17 1021.6 971.5
10 16.09 В 1 20 км 4/0
[Cs]
+21.5 +14.3 64 +24 +36 комфорт 1019.3 970.5
11 16.09 В 1 20 км 5/0
[Cs]
+23.9 +14.5 56 +27 +39 жарко 1018.2 969.8
12 16.09 В 1 20 км 6/0
[Cs]
+26.5 +12.0 40 +28 +39 жарко 1016.8 968.8
13 16.09 ЮВ 1 20 км 5/0
[Cs]
+28.2 +12.5 38 +30 +38 жарко 1015.6 968.0
20 16.09 штиль 0 20 км 1/0
[Ci fib]
+15.2 +13.3 88 +15 +15 1018.1 968.3
06 17.09 СВ 1 100 м туман ?/? +10.6 +10.4 99 +10 +10 1018.1 967.4 +10.3 +29.0
07 17.09 СЗ 1 800 м туман 1/1 30 м
[St Ac trans]
+11.9 +11.3 96 +12 +15 1017.8 967.4
08 17.09 Ю 1 10 км в посл. час туман 1/0
[Ac trans]
+16.7 +12.5 76 +18 +24 1017.0 967.4
09 17.09 В 1 20 км 1/0
[Ac trans Cc]
+20.5 +13.4 64 +24 +34 комфорт 1015.6 966.8
10 17.09 В 1 20 км 1/0
[Ci sp]
+23.5 +14.4 57 +26 +39 жарко 1015.3 967.0
11 17.09 ЮВ 1 20 км 1/0
[Ci sp]
+26.4 +14.6 48 +29 +42 жарко 1013.1 965.3
12 17.09 В 1 20 км 1/0
[Ci sp]
+27.7 +11.4 36 +29 +41 жарко 1012.0 964.4
13 17.09 В 2 20 км 3/1 1200 м
[Cu hum Ac lent Ci sp]
+28.8 +12.3 36 +30 +36 жарко 1011.1 963.8
20 17.09 З 1 20 км ясно +16.2 +13.9 86 +17 +17 1014.6 965.1
06 18.09 СВ 2 4000 м дымка 10/10 400 м
[Sc]
+14.7 +13.5 93 +14 +14 1017.8 967.9 +13.2 +30.0
07 18.09 З 1 4000 м осадки на расстоянии 10/10 300 м
[Sc]
+15.7 +13.9 89 +16 +16 1018.5 968.7
08 18.09 ЮЗ 1 4000 м слаб. дождь 10/8 300 м
[Frnb As op]
+15.0 +13.3 90 +15 +16 1019.9 969.9
09 18.09 З 3 4000 м слаб. дождь 10/8 300 м
[Frnb As op]
+14.6 +12.9 90 +14 +14 1021.0 970.9
10 18.09 З 1 4000 м дождь 10/8 300 м
[Frnb As op]
+13.9 +12.7 92 +14 +15 1021.9 971.6
11 18.09 штиль 0 10 км в посл. час дождь 10/5 400 м
[Frnb As op]
+14.2 +12.5 90 +14 +15 1021.7 971.5
12 18.09 З 1 20 км 10/5 400 м
[Cu Sc As op]
+14.9 +12.5 86 +15 +17 1021.5 971.4 5
13 18.09 С 3 20 км 10/5 300 м
[Cu Sc As op]
+14.1 +9.8 75 +13 +14 1021.7 971.4
20 18.09 СЗ 1 10 км 10/10 1000 м
[Sc]
+12.2 +10.6 90 +12 +12 1022.6 972.0
06 19.09 З 2 10 км 9/1 300 м
[St Ac As]
+11.2 +8.4 83 +10 +10 1022.2 971.4 +10.9 +16.4
07 19.09 З 2 20 км 10/1 400 м
[Cu Sc Ac As]
+12.4 +8.5 77 +12 +12 1022.5 971.9
08 19.09 З 2 20 км 10/1 400 м
[Cu Sc Ac As]
+12.7 +8.9 78 +12 +13 1022.6 972.0
09 19.09 З 2 20 км 10/1 600 м
[Cu med, cong Ac As]
+13.2 +8.4 73 +13 +15 1023.0 972.5
10 19.09 В 1 20 км 10/1 800 м
[Cu hum Ac As]
+13.8 +8.5 70 +14 +18 1022.9 972.5
11 19.09 З 1 20 км 10/0
[Ac As]
+14.3 +7.9 65 +15 +19 1022.7 972.4
12 19.09 ЮЗ 1 20 км 10/1 1200 м
[Cu hum Ac As]
+14.8 +6.3 57 +15 +19 1022.5 972.3
13 19.09 СВ 4 20 км 9/0
[Ac As]
+15.2 +2.4 42 +14 +16 1022.0 971.8
20 19.09 штиль 0 10 км 1/0
[Ac As]
+8.5 +6.3 86 +8 +8 1026.3 974.9
06 20.09 С 1 200 м туман ?/? +4.5 +3.8 95 +3 +3 1028.6 976.3 +4.1 +15.6
07 20.09 З 1 800 м туман ?/? +4.9 +4.0 94 +3 +3 1028.9 976.7
08 20.09 В 1 2000 м в посл. час туман 3/3 30 м
[St]
+7.3 +5.3 87 +6 +11 1028.5 976.7
09 20.09 СВ 1 20 км 1/1 800 м
[Cu hum Ci fib]
+11.8 +6.6 70 +12 +21 1027.0 976.0
10 20.09 С 3 20 км 1/1 800 м
[Cu hum Ci sp]
+15.0 +3.2 45 +14 +22 1025.8 975.4
11 20.09 СВ 4 20 км 1/1 800 м
[Cu hum Ci sp]
+15.6 +2.2 40 +15 +22 1025.1 974.8
12 20.09 С 5 20 км 1/0
[Ci sp]
+16.0 +1.7 38 +15 +20 1024.4 974.2

 

Местоположение метеостанции Яйце (Босния и Герцеговина): широта 44.35 долгота 17.27 высота над уровнем моря 428 м.

В архиве по умолчанию представлена погода в Яйце за последнюю неделю. Архивные данные за месяц целиком и за предыдущие месяцы, начиная с января 2011 года, Вы можете получить, выбрав интересующий диапазон дат из раскрывающегося списка и нажав кнопку "Ввод!".


*Определитесь, кто Вы:
робот инопланетянин человек

Внимание! Время в таблицах - всемирное. Для получения местного времени необходимо прибавить поправку, которая равна 1 ч.

Смотрите также архив погоды в соседних городах и на ближайших метеорологических станциях:

Погода в Бугойно (Босния и Герцеговина) (35 км)
Погода в Баня-Луке (Босния и Герцеговина) (48 км)
Погода в Зенице (Босния и Герцеговина) (52 км)
Погода в Ливно (Босния и Герцеговина) (61 км)
Погода в Сански-Мосте (Босния и Герцеговина) (65 км)
Погода в Иван-Седле (Босния и Герцеговина) (89 км)
Погода на Белашнице (Босния и Герцеговина) (106 км)
Погода в Сараево (Босния и Герцеговина) (107 км)
Погода в Славонски-Броде (Хорватия) (108 км)
Погода в Градачаце (Босния и Герцеговина) (109 км)

Пояснения к столбцам:

Ветер - указаны скорость ветра в м/с - средняя за 10 мин, порывы в срок и между сроками (в фигурных скобках) и направление, откуда дует ветер: С - северный, СВ - северо-восточный, В - восточный, ЮВ - юго-восточный, Ю - южный, ЮЗ - юго-западный, З - западный, СЗ - северо-западный.
Видимость - горизонтальная дальность видимости в метрах или километрах. При видимости от 1 до 10 км при отсутствии осадков обычно наблюдается дымка, при ухудшении видимости до 1 км и менее - туман. В сухую погоду видимость может ухудшаться дымом, пылью или мглою.
Явления - указаны атмосферные явления, наблюдавшиеся в срок или в последний час перед сроком; фигурными скобками обозначены явления, наблюдавшиеся между сроками (за 1-3 часа до срока); квадратными скобками обозначены град или гололедные отложения с указанием их диаметра в мм.
Облачность - указаны через наклонную черту общая и нижняя облачность в баллах и высота нижней границы облаков в метрах; квадратными скобками обозначены формы облаков: Ci - перистые, Cs - перисто-слоистые, Cc - перисто-кучевые, Ac - высококучевые, As - высокослоистые, Sc - слоисто-кучевые, Ns - слоисто-дождевые, Cu - кучевые, Cb - кучево-дождевые. Подробнее классификацию облаков см. в Атласе облаков (PDF).
T - Температура воздуха - температура, измеренная на высоте 2 м над землей.
Td - Температура точки росы - температура, при понижении до которой содержащийся в воздухе водяной пар достигнет насыщения.
f - Относительная влажность воздуха - влажноcть воздуха, измеренная на высоте 2 м над землей.
Te - Эффективная температура - температура, которую ощущает одетый по сезону человек в тени. Характеристика душности погоды. При расчете учитывается влияние влажности воздуха и скорости ветра на теплоощущения человека.
Tes - Эффективная температура на солнце - температура, которую ощущает человек, с поправкой на солнечный нагрев. Характеристика знойности погоды. Зависит от высоты солнца над горизонтом, облачности и скорости ветра. Ночью, в пасмурную погоду, а также при ветре 12 м/с и более поправка равна нулю.
P - Атмосферное давление - приведенное к уровню моря атмосферное давление.
Po - Атмосферное давление - измеренное на уровне метеостанции атмосферное давление.
Tmin - Минимальная температура - минимум температуры воздуха на высоте 2 м над землей.
Tmax - Максимальная температура - максимум температуры воздуха на высоте 2 м над землей.
R - Количество осадков - Количество выпавших осадков за период времени, мм. При наведении курсора мыши на число - период времени, за который выпало указанное количество осадков.
R24 - Количество осадков - Количество выпавших осадков за 24 часа, мм.
S - Снежный покров - Высота снежного покрова, см. При наведении курсора мыши на число - состояние снежного покрова и степень покрытия местности в баллах.